Location: Alvis C Story Elementary School
(33.0968°N, 96.6364°W)
Time: 06:27:03
(UTC+00:00)

Cosmos 1602 - Pass Details

Date: 06 July 2022
Orbit: 509 x 526 km, 82.5° (Epoch: 14 August)

Event Time Altitude Azimuth Distance (km) Brightness Sun altitude
Exits shadow 07:57:04 15° 68° (ENE) 1,445 6.4 -30.6°
Drops below altitude 10° 07:58:24 10° 48° (NE) 1,729 7.1 -30.5°
Sets 08:01:07 0° 27° (NNE) 2,621 8.5 -30.3°
